Regional Weather Roundup
Issued by NWS

Home | Current Version | Previous Version | Graphics & Text | Print | Product List | Glossary On
Versions: 1 2 3 4 5 6 7 8 9 10 11 12 13 14 15 16 17 18 19 20 21 22 23 24 25 26 27 28 29 30 31 32 33 34 35 36 37 38 39 40 41 42 43 44 45 46 47 48 49 50
000
ASUS43 KTOP 210259
RWRKS

WEATHER ROUNDUP FOR KANSAS
NATIONAL WEATHER SERVICE GOODLAND KS
900 PM CST TUE FEB 20 2018

NOTE:  "FAIR" INDICATES FEW OR NO CLOUDS BELOW 12,000 FEET WITH NO
SIGNIFICANT WEATHER AND/OR OBSTRUCTIONS TO VISIBILITY.

KSZ001>006-013>018-027>032-041>047-210400-
NORTHWEST KANSAS

CITY           SKY/WX    TMP DP  RH WIND       PRES   REMARKS
GOODLAND       PTCLDY     5   0  79 NW6       30.25R
HAYS           CLOUDY    16   5  62 N10       30.32R WCI   4
HILL CITY      CLOUDY    14   3  61 N10       30.34R WCI   1
RUSSELL        CLOUDY    18   6  59 N10       30.30R WCI   6
$$

KSZ061>065-074>080-084>089-210400-
SOUTHWEST KANSAS

CITY           SKY/WX    TMP DP  RH WIND       PRES   REMARKS
DODGE CITY     CLOUDY    17   1  49 N12       30.25R WCI   4
GARDEN CITY    CLEAR     14  -3  47 N10       30.26R WCI   1
GREAT BEND     CLOUDY    18   7  62 N13       30.30R WCI   5
LIBERAL        CLOUDY    22   2  42 N17       30.24R WCI   8
$$

KSZ066>073-081>083-090>101-210400-
SOUTHEAST KANSAS

CITY           SKY/WX    TMP DP  RH WIND       PRES   REMARKS
CHANUTE        MOCLDY    25  20  81 N15G23    30.28R WCI  13
COFFEYVILLE    CLOUDY    27  23  85 N15G22    30.27R WCI  15
HUTCHINSON     CLOUDY    21  13  71 N10       30.31R WCI  10
MEDICINE LODGE   N/A     23  13  65 N12       30.29R WCI  12
NEWTON         PTCLDY    19  15  84 N16       30.30R WCI   4
PARSONS        CLOUDY    26  23  88 N12G21    30.28R WCI  16
WICHITA INTL   CLOUDY    24  17  74 N14       30.30R WCI  12
WICHITA JABRA  CLOUDY    21  18  88 N8        30.30R
WICHITA MCCONL CLOUDY    22  17  81 N12       30.30R WCI  10
WINFIELD       CLOUDY    23  20  88 N14       30.29R WCI  11
$$

KSZ007>012-019>026-033>040-048>060-102>105-210400-
NORTHEAST KANSAS

CITY           SKY/WX    TMP DP  RH WIND       PRES   REMARKS
CONCORDIA      CLOUDY    16   7  67 N14       30.34R WCI   2
EMPORIA        PTCLDY    21  15  78 N12       30.31R WCI   9
LAWRENCE       CLOUDY    22  16  78 NW14      30.32R WCI   9
MANHATTAN      CLOUDY    22  11  62 N9        30.35R
OLATHE IND     CLOUDY    20  17  88 N13       30.31R WCI   7
OLATHE EXE     CLOUDY    21  17  84 N14       30.29R WCI   8
SALINA         CLOUDY    21  11  65 N14       30.34R WCI   8
TOPEKA BILLARD CLOUDY    21  15  78 N9        30.34R
TOPEKA FORBES  CLOUDY    21  14  74 N14       30.32R WCI   8
$$




USA.gov is the U.S. government's official web portal to all federal, state and local government web resources and services.